Location: Brantley
(31.5822°N, 86.2569°W)
Time: 18:01:39
(UTC+00:00)

Tiros 1 despin weight - Visible Passes

Search period start: 18 February 2026 00:00
Search period end: 28 February 2026 00:00
Orbit: 557 x 594 km, 48.2° (Epoch: 16 February)

Date Brightness Start Highest point End Pass type
(mag) Time Alt. Az. Time Alt. Az. Time Alt. Az.
18 Feb ? 01:16:30 10° N 01:17:34 12° N 01:17:34 12° N visible
19 Feb ? 01:18:30 10° NNW 01:20:09 16° N 01:20:09 16° N visible
20 Feb ? 01:20:38 10° NNW 01:22:47 21° N 01:22:47 21° N visible
21 Feb ? 01:22:51 10° NW 01:25:29 29° N 01:25:29 29° N visible
22 Feb ? 01:25:09 10° NW 01:28:18 44° NNW 01:28:18 44° NNW visible
23 Feb ? 01:27:33 10° NW 01:31:13 67° WNW 01:31:13 67° WNW visible
24 Feb ? 01:30:07 10° WNW 01:34:09 48° SW 01:34:18 48° SW visible
25 Feb ? 01:32:54 10° WNW 01:36:29 27° SW 01:37:32 24° SSW visible
26 Feb ? 01:36:10 10° W 01:38:46 16° SW 01:41:00 11° SSW visible
